Hamilton Airport, Ontario

7:49 AM EST on November 19, 2017 (GMT -0500)
Hamilton Airport

Weather History for CYHM - October, 2012

Change the Weather History Date:

Thursday, October 4, 2012

  Actual Average Record
Temperature  
Mean Temperature 64 °F -  
Max Temperature 73 °F 55 °F 78 °F (2002)
Min Temperature 56 °F 39 °F 30 °F (1996)
Growing Degree Days 14 (Base 50)    
Moisture  
Dew Point 55 °F    
Average Humidity 77    
Maximum Humidity 100    
Minimum Humidity 42    
Precipitation  
Precipitation 0.00 in 0.09 in - ()
Sea Level Pressure  
Sea Level Pressure 30.08 in    
Wind  
Wind Speed 10 mph ()    
Max Wind Speed 25 mph    
Max Gust Speed 36 mph    
Visibility 14.3 miles    
Events      
Averages and records for this station are not official NWS values.
T = Trace of Precipitation, MM = Missing Value Source: Averaged Metar Reports

Daily Weather History Graph

Daily Weather History Graph

Search for Another Location

Airport or City:

Trip Planner

Search our weather history database for the weather conditions in past years. The results will help you decide how hot, cold, wet, or windy it might be!

Date:

Astronomy

Oct. 04, 2012 Rise Set
Actual Time 7:21 AM EDT 6:54 PM EDT
Civil Twilight 6:52 AM EDT 7:23 PM EDT
Nautical Twilight 6:19 AM EDT 7:56 PM EDT
Astronomical Twilight 5:46 AM EDT 8:29 PM EDT
Moon 9:21 PM EDT (10/4) 11:44 AM EDT (10/4)
Length of Visible Light 12h 30m
Length of Day
11h 33m
Waning Gibbous, 82% of the Moon is Illuminated
Oct 4
Waning Gibbous
Oct 8
Last Quarter
Oct 15
New
Oct 21
First Quarter
Oct 29
Full

Hourly Weather History & Observations

Time (EDT) Temp. Dew Point Humidity Pressure Visibility Wind Dir Wind Speed Gust Speed Precip Events Conditions
12:00 AM 57.2 °F 55.4 °F 94% 30.13 in 15.0 mi SSW 6.9 mph - N/A   Mostly Cloudy
1:00 AM 57.2 °F 55.4 °F 94% 30.13 in 15.0 mi SW 5.8 mph - N/A   Mostly Cloudy
2:00 AM 57 °F 55 °F 92% 30.14 in 15 mi SSW 6.9 mph - -   Mostly Cloudy
2:00 AM 57.2 °F 55.4 °F 94% 30.14 in 15.0 mi SSW 5.8 mph - N/A   Mostly Cloudy
3:00 AM 57.2 °F 55.4 °F 94% 30.12 in 15.0 mi South 5.8 mph - N/A   Mostly Cloudy
4:00 AM 57.2 °F 55.4 °F 94% 30.12 in 15.0 mi SSW 5.8 mph - N/A   Overcast
5:00 AM 57.2 °F 55.4 °F 94% 30.11 in 15.0 mi South 6.9 mph - N/A   Overcast
6:00 AM 57.2 °F 55.4 °F 94% 30.11 in 15.0 mi South 6.9 mph - N/A   Overcast
7:00 AM 57.2 °F 57.2 °F 100% 30.11 in 15.0 mi South 8.1 mph - N/A   Overcast
8:00 AM 59 °F 57 °F 92% 30.11 in 7 mi South 9.2 mph - -   Partly Cloudy
8:00 AM 59.0 °F 57.2 °F 94% 30.11 in 8.0 mi South 10.4 mph - N/A   Mostly Cloudy
9:00 AM 60.8 °F 57.2 °F 88% 30.10 in 10.0 mi SSW 10.4 mph - N/A   Mostly Cloudy
10:00 AM 64.4 °F 57.2 °F 77% 30.10 in 15.0 mi SSW 13.8 mph 20.7 mph N/A   Mostly Cloudy
11:00 AM 68.0 °F 57.2 °F 68% 30.09 in 15.0 mi SW 18.4 mph 25.3 mph N/A   Partly Cloudy
12:00 PM 71.6 °F 55.4 °F 57% 30.08 in 15.0 mi SW 23.0 mph 28.8 mph N/A   Partly Cloudy
1:00 PM 71.6 °F 53.6 °F 53% 30.07 in 15.0 mi SW 24.2 mph 32.2 mph N/A   Mostly Cloudy
2:00 PM 71 °F 53 °F 42% 30.04 in 15 mi SW 25.3 mph - -   Mostly Cloudy
2:00 PM 71.6 °F 51.8 °F 50% 30.04 in 15.0 mi SW 25.3 mph 35.7 mph N/A   Mostly Cloudy
3:00 PM 71.6 °F 53.6 °F 53% 30.03 in 15.0 mi WSW 24.2 mph 35.7 mph N/A   Mostly Cloudy
4:00 PM 71.6 °F 53.6 °F 53% 30.02 in 15.0 mi SW 21.9 mph 28.8 mph N/A   Partly Cloudy
5:00 PM 68.0 °F 55.4 °F 64% 30.03 in 15.0 mi SW 19.6 mph 26.5 mph N/A   Mostly Cloudy
6:00 PM 68.0 °F 55.4 °F 64% 30.04 in 15.0 mi SW 16.1 mph - N/A   Partly Cloudy
8:00 PM 62 °F 53 °F 63% 30.05 in 15 mi SW 10.4 mph - -  
8:00 PM 62.6 °F 51.8 °F 68% 30.05 in 15.0 mi SW 10.4 mph - N/A   Clear
9:00 PM 60.8 °F 51.8 °F 72% 30.06 in 15.0 mi SW 10.4 mph - N/A   Clear
10:00 PM 57.2 °F 51.8 °F 82% 30.05 in 15.0 mi SW 6.9 mph - N/A   Clear
11:00 PM 57.2 °F 51.8 °F 82% 30.03 in 15.0 mi South 6.9 mph - N/A   Clear